Torna al catalogo

STARLINK-5321

AttivoComunicazioniVLEO
NORAD 55302·PAYLOAD·🇺🇸 United States

Lanciato Jan 19, 2023 da Vandenberg Space Force Base

Loading…

Prossimi Passaggi (prossime 24 ore)

TLE

AggiornatoSource: CelesTrak SupGP

Epoca: Sep 14, 2026, 22:00 UTC

1 55302C 23010AK  26257.91715278  .00068162  00000+0  57144-2 0  2575
2 55302  69.9995 267.2490 0003557 264.6957 175.4022 14.98280401    12

Traccia STARLINK-5321 in tempo reale con AllMySat

Download on the App Store